Volver al catálogo

SL-8 DEB

ActivoLEO
NORAD 12793·DEBRIS·🇷🇺 Russia

Lanzado Aug 28, 1981 desde Plesetsk Cosmodrome

Loading…

Próximos Pases (próximas 24 horas)

TLE

ActualizadoSource: Space-Track

Época: Sep 14, 2026, 07:16 UTC

1 12793U 81084C   26257.30284557  .00002463  00000-0  34273-3 0  9996
2 12793  74.0259   9.5778 0001685 320.4753  39.6299 14.78394038381794

Sigue SL-8 DEB en tiempo real con AllMySat

Download on the App Store